Location: R�serve Fauniques des Laurentides
(47.3100°N, 71.1900°W)
Time: 04:19:21
(UTC-04:00)

Amateur Radio Satellites - All Passes

Search period start: 25 July 2014 03:49
Search period end: 26 July 2014 03:49
Location: R�serve Fauniques des Laurentides, 47.3100°N, 71.1900°W

Satellite Date Start Highest point End Downlink Frequencies (MHz)
Time Altitude Azimuth
ITAMSAT 1 25 Jul 03:54:16 03:59:10 44° 293° (WNW) 04:04:02 435.822 SSB
JAS-1B 25 Jul 03:57:42 04:07:32 85° 288° (WNW) 04:16:09 435.800 - 435.900 CW/SSB
OPAL 25 Jul 04:05:41 04:10:32 55° 257° (WSW) 04:15:25 ?
AO-Echo 25 Jul 04:07:10 04:11:44 32° 296° (WNW) 04:16:09 ?
Gurwin Techsat 1B 25 Jul 04:09:12 04:14:31 72° 288° (WNW) 04:19:48 435.225 FM
AO-27 25 Jul 04:12:33 04:17:05 31° 296° (WNW) 04:21:36 436.795 MHz FM
Lituanica SAT-1 25 Jul 04:12:44 04:14:44 35° 15° (NNE) 04:16:43 437.275 MHz beacon
Uribyol 2 25 Jul 04:15:15 04:19:39 29° 297° (WNW) 04:24:01 436.500 FM
Uosat F 25 Jul 04:21:27 04:25:48 29° 95° (E) 04:30:07 435.120 FM
Sapphire 25 Jul 04:34:38 04:38:06 17° 331° (NNW) 04:41:34 437.095 MHz 1200 baud AX-25 AFSK
STRAND 1 25 Jul 04:46:05 04:48:06 12° 53° (NE) 04:50:08 ?
AO-7 25 Jul 04:55:56 05:04:03 52° 101° (ESE) 05:12:05 29.400 - 29.500 MHz
PCSat 25 Jul 05:10:42 05:12:50 12° 340° (NNW) 05:14:59 145.825 MHz
ISS 25 Jul 05:24:42 05:27:57 44° 11° (N) 05:31:12 145.800 FM
JAS-2 25 Jul 05:27:17 05:28:49 11° 80° (E) 05:30:19 435.800 - 435.900 CW/SSB, 435.910 FM
TMSAT-1 25 Jul 05:28:24 05:32:30 23° 300° (WNW) 05:36:36 436.925 FM
Lituanica SAT-1 25 Jul 05:45:27 05:47:20 28° 213° (SSW) 05:49:12 437.275 MHz beacon
JAS-1B 25 Jul 05:49:00 05:56:40 28° 311° (NW) 06:03:47 435.800 - 435.900 CW/SSB
Gurwin Techsat 1B 25 Jul 05:51:18 05:53:34 13° 307° (NW) 05:55:51 435.225 FM
Uosat F 25 Jul 06:00:00 06:04:42 41° 293° (WNW) 06:09:22 435.120 FM
MaSat-1 25 Jul 06:15:45 06:20:19 28° 46° (NE) 06:24:50 437.345 MHz
KITSAT 1 25 Jul 06:20:38 06:27:35 33° 108° (ESE) 06:34:33 435.175 FM
STRAND 1 25 Jul 06:21:17 06:26:24 71° 72° (ENE) 06:31:33 ?
Hamsat 25 Jul 06:25:28 06:29:31 40° 98° (E) 06:33:35 145.90 MHz
AO-7 25 Jul 06:49:00 06:56:43 44° 302° (WNW) 07:04:23 29.400 - 29.500 MHz
ISS 25 Jul 07:01:27 07:04:47 60° 210° (SSW) 07:08:06 145.800 FM
Oscar 10/S400 25 Jul 07:04:23 08:09:52 22° 251° (WSW) 10:36:45 145.825 - 145.975 CW/USB, Beacon 145.810 USB
JAS-2 25 Jul 07:09:00 07:15:22 72° 102° (ESE) 07:20:57 435.800 - 435.900 CW/SSB, 435.910 FM
MaSat-1 25 Jul 07:52:49 07:58:05 60° 246° (WSW) 08:03:10 437.345 MHz
Hamsat 25 Jul 08:01:55 08:05:17 23° 295° (WNW) 08:08:39 145.90 MHz
STRAND 1 25 Jul 08:02:49 08:06:08 17° 270° (W) 08:09:27 ?
Sapphire 25 Jul 08:07:21 08:10:04 14° 24° (NNE) 08:12:47 437.095 MHz 1200 baud AX-25 AFSK
KITSAT 1 25 Jul 08:14:22 08:22:27 69° 310° (NW) 08:30:34 435.175 FM
SO-67 25 Jul 08:14:23 08:17:52 71° 285° (WNW) 08:21:19 435.3500 MHz FM
HO-68 25 Jul 08:26:44 08:31:09 17° 87° (E) 08:35:32 435.675 MHz FM
ISS 25 Jul 08:40:04 08:40:55 11° 228° (SW) 08:41:46 145.800 FM
PCSat 25 Jul 08:40:49 08:44:44 20° 33° (NNE) 08:48:37 145.825 MHz
AO-7 25 Jul 08:43:50 08:47:23 13° 326° (NW) 08:50:55 29.400 - 29.500 MHz
JAS-2 25 Jul 08:54:58 08:59:43 23° 305° (NW) 09:04:06 435.800 - 435.900 CW/SSB, 435.910 FM
Saudisat 1A 25 Jul 08:58:07 09:02:29 62° 123° (ESE) 09:06:53 436.775 MHz
Oscar 11 25 Jul 09:13:42 09:14:09 10° 87° (E) 09:14:36 145.825 FM, Beacon 2401.500 USB
Sapphire 25 Jul 09:49:48 09:54:59 43° 47° (NE) 10:00:08 437.095 MHz 1200 baud AX-25 AFSK
UKube-1 25 Jul 09:56:53 10:01:10 52° 101° (E) 10:05:25 145.840 MHz, 145.915 MHz
HO-68 25 Jul 10:12:43 10:19:55 84° 107° (ESE) 10:27:04 435.675 MHz FM
KITSAT 1 25 Jul 10:12:44 10:19:25 27° 335° (NNW) 10:26:07 435.175 FM
PCSat 25 Jul 10:23:37 10:29:05 76° 55° (NE) 10:34:30 145.825 MHz
Saudisat 1A 25 Jul 10:38:47 10:42:26 24° 324° (NW) 10:46:06 436.775 MHz
Oscar 11 25 Jul 10:46:37 10:50:59 88° 284° (WNW) 10:55:19 145.825 FM, Beacon 2401.500 USB
FUNcube-1 25 Jul 10:56:32 11:00:32 44° 99° (E) 11:04:32 145.950 - 145.970 MHz USB
JAS-1B 25 Jul 11:13:01 11:15:23 11° 29° (NNE) 11:17:45 435.800 - 435.900 CW/SSB
Sapphire 25 Jul 11:33:25 11:38:21 36° 247° (WSW) 11:43:16 437.095 MHz 1200 baud AX-25 AFSK
UKube-1 25 Jul 11:33:56 11:37:01 19° 299° (WNW) 11:40:06 145.840 MHz, 145.915 MHz
Oscar 16 25 Jul 11:47:03 11:49:59 16° 56° (NE) 11:52:55 437.025 USB, Beacon 2401.1428
HO-68 25 Jul 12:01:23 12:06:52 25° 307° (NW) 12:12:20 435.675 MHz FM
ITAMSAT 1 25 Jul 12:01:51 12:02:39 10° 51° (NE) 12:03:27 435.822 SSB
PCSat 25 Jul 12:08:12 12:11:53 19° 254° (WSW) 12:15:33 145.825 MHz
AO-Echo 25 Jul 12:09:00 12:11:08 12° 53° (NE) 12:13:15 ?
KITSAT 1 25 Jul 12:12:14 12:17:59 20° 5° (N) 12:23:43 435.175 FM
AO-27 25 Jul 12:17:44 12:20:29 15° 55° (NE) 12:23:15 436.795 MHz FM
Uribyol 2 25 Jul 12:19:52 12:22:50 16° 56° (NE) 12:25:49 436.500 FM
Oscar 11 25 Jul 12:24:59 12:26:30 12° 303° (WNW) 12:28:00 145.825 FM, Beacon 2401.500 USB
FUNcube-1 25 Jul 12:33:39 12:36:41 20° 297° (WNW) 12:39:42 145.950 - 145.970 MHz USB
SO-50 25 Jul 12:49:33 12:52:38 19° 112° (ESE) 12:55:45 436.795 FM
JAS-1B 25 Jul 12:55:03 13:02:45 33° 53° (NE) 13:11:02 435.800 - 435.900 CW/SSB
Oscar 19 25 Jul 12:56:03 13:00:59 52° 69° (ENE) 13:05:58 437.125 CW, 437.150 USB
RS-15 25 Jul 13:15:28 13:25:04 36° 107° (ESE) 13:34:30 29.354 - 29.394 USB, Beacon 29.352 USB
Oscar 16 25 Jul 13:23:31 13:28:38 88° 255° (WSW) 13:33:48 437.025 USB, Beacon 2401.1428
TMSAT-1 25 Jul 13:33:53 13:37:40 20° 59° (ENE) 13:41:27 436.925 FM
ITAMSAT 1 25 Jul 13:35:59 13:41:06 58° 70° (ENE) 13:46:14 435.822 SSB
AO-Echo 25 Jul 13:43:41 13:48:56 68° 72° (ENE) 13:54:15 ?
AO-27 25 Jul 13:53:59 13:59:13 83° 74° (ENE) 14:04:29 436.795 MHz FM
Gurwin Techsat 1B 25 Jul 13:54:16 13:59:07 37° 66° (ENE) 14:04:00 435.225 FM
Uribyol 2 25 Jul 13:56:23 14:01:36 89° 77° (ENE) 14:06:50 436.500 FM
AO-7 25 Jul 14:08:12 14:14:39 26° 48° (NE) 14:21:05 29.400 - 29.500 MHz
KITSAT 1 25 Jul 14:08:52 14:16:10 35° 34° (NE) 14:23:24 435.175 FM
SO-50 25 Jul 14:28:15 14:32:43 64° 311° (NW) 14:37:18 436.795 FM
Oscar 19 25 Jul 14:36:38 14:40:39 23° 268° (W) 14:44:41 437.125 CW, 437.150 USB
JAS-1B 25 Jul 14:43:25 14:52:13 82° 256° (WSW) 15:02:09 435.800 - 435.900 CW/SSB
Oscar 16 25 Jul 15:06:37 15:08:45 13° 273° (W) 15:10:53 437.025 USB, Beacon 2401.1428
UOSAT-12 25 Jul 15:11:20 15:15:28 34° 117° (ESE) 15:19:42 437.025 FM, 437.400 FM
TMSAT-1 25 Jul 15:11:47 15:17:04 70° 258° (WSW) 15:22:24 436.925 FM
ITAMSAT 1 25 Jul 15:17:03 15:20:58 21° 268° (W) 15:24:55 435.822 SSB
AO-Echo 25 Jul 15:24:30 15:28:11 19° 271° (W) 15:31:55 ?
RS-15 25 Jul 15:25:27 15:36:32 76° 311° (NW) 15:47:32 29.354 - 29.394 USB, Beacon 29.352 USB
Gurwin Techsat 1B 25 Jul 15:34:19 15:39:07 34° 264° (W) 15:43:57 435.225 FM
AO-27 25 Jul 15:36:33 15:39:24 15° 272° (W) 15:42:15 436.795 MHz FM
Uosat F 25 Jul 15:37:35 15:42:30 56° 70° (ENE) 15:47:27 435.120 FM
Uribyol 2 25 Jul 15:39:22 15:41:48 13° 273° (W) 15:44:15 436.500 FM
JAS-2 25 Jul 15:42:46 15:46:00 13° 47° (NE) 15:49:09 435.800 - 435.900 CW/SSB, 435.910 FM
Saudisat 1A 25 Jul 15:42:56 15:46:33 24° 36° (NE) 15:50:08 436.775 MHz
AO-7 25 Jul 15:58:02 16:06:25 87° 69° (ENE) 16:14:50 29.400 - 29.500 MHz
KITSAT 1 25 Jul 16:04:18 16:12:26 81° 238° (WSW) 16:20:29 435.175 FM
SO-50 25 Jul 16:11:15 16:14:11 17° 333° (NNW) 16:17:10 436.795 FM
OPAL 25 Jul 16:12:24 16:16:46 29° 97° (E) 16:21:08 ?
JAS-1B 25 Jul 16:37:46 16:44:15 22° 278° (W) 16:51:16 435.800 - 435.900 CW/SSB
UOSAT-12 25 Jul 16:51:11 16:55:34 40° 317° (NW) 17:00:03 437.025 FM, 437.400 FM
Uosat F 25 Jul 17:17:50 17:21:38 21° 268° (W) 17:25:28 435.120 FM
Hamsat 25 Jul 17:21:56 17:25:52 42° 70° (ENE) 17:29:51 145.90 MHz
JAS-2 25 Jul 17:22:05 17:29:33 51° 67° (ENE) 17:36:35 435.800 - 435.900 CW/SSB, 435.910 FM
Saudisat 1A 25 Jul 17:22:08 17:26:32 65° 236° (SW) 17:30:52 436.775 MHz
RS-15 25 Jul 17:41:07 17:50:57 36° 341° (NNW) 18:00:50 29.354 - 29.394 USB, Beacon 29.352 USB
OPAL 25 Jul 17:51:02 17:55:46 42° 295° (WNW) 18:00:33 ?
AO-7 25 Jul 17:53:56 18:00:12 23° 270° (W) 18:06:32 29.400 - 29.500 MHz
KITSAT 1 25 Jul 18:01:19 18:06:37 19° 259° (WSW) 18:11:53 435.175 FM
STRAND 1 25 Jul 18:29:44 18:33:17 19° 90° (E) 18:36:48 ?
UOSAT-12 25 Jul 18:34:40 18:37:00 13° 339° (NNW) 18:39:20 437.025 FM, 437.400 FM
SO-67 25 Jul 18:50:22 18:53:47 60° 74° (ENE) 18:57:14 435.3500 MHz FM
Hamsat 25 Jul 18:58:59 19:02:03 20° 268° (W) 19:05:10 145.90 MHz
HO-68 25 Jul 18:59:21 19:04:27 22° 50° (NE) 19:09:33 435.675 MHz FM
JAS-2 25 Jul 19:07:21 19:14:39 41° 264° (W) 19:21:37 435.800 - 435.900 CW/SSB, 435.910 FM
SO-50 25 Jul 19:36:52 19:39:24 14° 23° (NNE) 19:41:57 436.795 FM
RS-15 25 Jul 19:57:27 20:07:10 34° 16° (NNE) 20:17:02 29.354 - 29.394 USB, Beacon 29.352 USB
STRAND 1 25 Jul 20:07:52 20:12:56 64° 289° (WNW) 20:17:58 ?
Oscar 11 25 Jul 20:11:07 20:13:16 14° 59° (ENE) 20:15:26 145.825 FM, Beacon 2401.500 USB
HO-68 25 Jul 20:44:02 20:51:13 85° 71° (ENE) 20:58:26 435.675 MHz FM
UKube-1 25 Jul 20:55:16 20:59:37 70° 73° (ENE) 21:04:00 145.840 MHz, 145.915 MHz
SO-50 25 Jul 21:16:33 21:21:07 46° 45° (NE) 21:25:44 436.795 FM
Oscar 11 25 Jul 21:44:35 21:48:53 77° 257° (WSW) 21:53:13 145.825 FM, Beacon 2401.500 USB
MaSat-1 25 Jul 21:47:41 21:51:20 33° 108° (ESE) 21:55:33 437.345 MHz
STRAND 1 25 Jul 21:49:45 21:51:09 11° 308° (NW) 21:52:33 ?
FUNcube-1 25 Jul 21:55:54 22:00:09 54° 72° (ENE) 22:04:19 145.950 - 145.970 MHz USB
UOSAT-12 25 Jul 21:58:02 22:01:22 19° 29° (NNE) 22:04:41 437.025 FM, 437.400 FM
RS-15 25 Jul 22:10:54 22:21:54 69° 46° (NE) 22:33:12 29.354 - 29.394 USB, Beacon 29.352 USB
UKube-1 25 Jul 22:34:08 22:36:19 14° 271° (W) 22:38:30 145.840 MHz, 145.915 MHz
HO-68 25 Jul 22:34:40 22:39:47 21° 271° (W) 22:44:55 435.675 MHz FM
SO-50 25 Jul 22:57:25 23:01:33 30° 244° (WSW) 23:05:42 436.795 FM
Lituanica SAT-1 25 Jul 23:19:02 23:20:22 15° 142° (SE) 23:21:42 437.275 MHz beacon
MaSat-1 25 Jul 23:24:48 23:28:41 33° 311° (NW) 23:33:06 437.345 MHz
FUNcube-1 25 Jul 23:34:07 23:36:52 16° 269° (W) 23:39:37 145.950 - 145.970 MHz USB
UOSAT-12 25 Jul 23:37:35 23:42:21 73° 50° (NE) 23:47:02 437.025 FM, 437.400 FM
RS-15 26 Jul 00:23:44 00:33:43 42° 250° (WSW) 00:44:03 29.354 - 29.394 USB, Beacon 29.352 USB
Sapphire 26 Jul 00:36:39 00:40:15 18° 106° (ESE) 00:43:51 437.095 MHz 1200 baud AX-25 AFSK
Lituanica SAT-1 26 Jul 00:50:37 00:52:40 55° 339° (NNW) 00:54:43 437.275 MHz beacon
Oscar 19 26 Jul 01:05:51 01:08:36 14° 88° (E) 01:11:21 437.125 CW, 437.150 USB
PCSat 26 Jul 01:08:49 01:13:42 35° 112° (ESE) 01:18:36 145.825 MHz
UOSAT-12 26 Jul 01:18:51 01:21:58 18° 249° (WSW) 01:25:04 437.025 FM, 437.400 FM
ISS 26 Jul 01:22:00 01:25:13 46° 147° (SSE) 01:28:27 145.800 FM
Oscar 16 26 Jul 01:32:29 01:36:46 26° 93° (E) 01:41:02 437.025 USB, Beacon 2401.1428
ITAMSAT 1 26 Jul 01:46:58 01:50:06 16° 89° (E) 01:53:13 435.822 SSB
AO-Echo 26 Jul 01:49:12 01:52:34 17° 89° (E) 01:55:52 ?
OPAL 26 Jul 01:55:14 01:57:15 13° 51° (NE) 01:59:17 ?
AO-27 26 Jul 02:04:33 02:08:40 23° 92° (E) 02:12:44 436.795 MHz FM
Uribyol 2 26 Jul 02:06:32 02:10:46 25° 93° (E) 02:14:57 436.500 FM
Gurwin Techsat 1B 26 Jul 02:09:42 02:11:01 11° 85° (E) 02:12:19 435.225 FM
Sapphire 26 Jul 02:17:38 02:23:02 77° 305° (NW) 02:28:30 437.095 MHz 1200 baud AX-25 AFSK
Lituanica SAT-1 26 Jul 02:23:42 02:25:27 22° 358° (N) 02:27:11 437.275 MHz beacon
JAS-1B 26 Jul 02:26:50 02:35:20 34° 89° (E) 02:42:53 435.800 - 435.900 CW/SSB
Oscar 19 26 Jul 02:43:25 02:48:37 83° 286° (WNW) 02:53:47 437.125 CW, 437.150 USB
PCSat 26 Jul 02:51:52 02:57:02 44° 312° (NW) 03:02:14 145.825 MHz
ISS 26 Jul 02:58:41 03:01:57 49° 346° (NNW) 03:05:15 145.800 FM
Oscar 16 26 Jul 03:11:25 03:16:21 47° 292° (WNW) 03:21:16 437.025 USB, Beacon 2401.1428
TMSAT-1 26 Jul 03:24:35 03:29:30 37° 97° (E) 03:34:22 436.925 FM
ITAMSAT 1 26 Jul 03:25:00 03:30:12 76° 287° (WNW) 03:35:21 435.822 SSB
AO-Echo 26 Jul 03:26:45 03:31:53 68° 288° (WNW) 03:36:50 ?
OPAL 26 Jul 03:30:23 03:35:18 73° 70° (ENE) 03:40:16 ?
Uosat F 26 Jul 03:43:57 03:46:15 13° 88° (E) 03:48:32 435.120 FM
